Regional Weather Roundup
Issued by NWS

Home | Current Version | Previous Version | Graphics & Text | Print | Product List | Glossary On
Versions: 1 2 3 4 5 6 7 8 9 10 11 12 13 14 15 16 17 18 19 20 21 22 23 24 25 26 27 28 29 30 31 32 33 34 35 36 37 38 39 40 41 42 43 44 45 46 47 48 49 50
000
ASUS44 KMEG 231200
RWRTN
TENNESSEE HOURLY STATE WEATHER ROUNDUP
NATIONAL WEATHER SERVICE MEMPHIS TN
700 AM CDT THU OCT 23 2014

TNZ002-004-019-021-049-052-054-088>092-231300-
WEST TENNESSEE

CITY           SKY/WX    TMP DP  RH WIND       PRES   REMARKS
MEMPHIS INTL   MOCLDY    45  40  82 NE3       30.19R
NWS MEMPHIS      N/A     42 N/A N/A MISG        N/A
JACKSON        CLEAR     37  35  92 CALM      30.19F
DYERSBURG      CLEAR     45  32  61 CALM      30.21S
UNION CITY     CLEAR     39  39 100 E3        30.18F
PARIS          CLEAR     41  37  87 E5        30.21S
LEXINGTON      CLEAR     37  36  93 CALM      30.18S
SAVANNAH       CLEAR     34  34 100 CALM      30.18S
$$

TNZ008-025-027-028-033-062-065-066-231300-
NORTH MIDDLE TENNESSEE

CITY           SKY/WX    TMP DP  RH WIND       PRES   REMARKS
NASHVILLE      PTCLDY    42  40  92 CALM      30.23S
CLARKSVILLE    CLEAR     38  37  97 CALM      30.22F FOG
SMYRNA         CLEAR     36  36 100 CALM      30.24S FOG
CROSSVILLE     CLEAR     37  33  85 CALM      30.21R
$$

TNZ061-075-076-078-094-096-097-231300-
SOUTH MIDDLE TENNESSEE

CITY           SKY/WX    TMP DP  RH WIND       PRES   REMARKS
SHELBYVILLE    CLEAR     36  36 100 CALM      30.21F
$$

TNZ017-018-042-046-047-231300-
NORTHEAST TENNESSEE

CITY           SKY/WX    TMP DP  RH WIND       PRES   REMARKS
TRI CITIES     CLOUDY    47  37  68 N6        30.21R
ELIZABETHTON   CLOUDY    45  37  76 W6        30.20R
$$

TNZ012-013-036-069-073-074-231300-
CENTRAL EAST TENNESSEE

CITY           SKY/WX    TMP DP  RH WIND       PRES   REMARKS
KNOXVILLE      PTCLDY    41  38  89 E3        30.20S
OAK RIDGE      PTCLDY    44  40  85 CALM      30.22S
GATLINBURG     CLOUDY    39  37  93 CALM      30.21S
$$

TNZ083-085-099-231300-
SOUTHEAST TENNESSEE

CITY           SKY/WX    TMP DP  RH WIND       PRES   REMARKS
CHATTANOOGA    CLEAR     47  40  76 N7        30.20S
$$

SKY/WX REPORTED AS FAIR MEANS FEW OR NO CLOUDS BELOW
12 THOUSAND FEET.




USA.gov is the U.S. government's official web portal to all federal, state and local government web resources and services.